Location: Schommer Observatory
(40.5200°N, 74.4500°W)
Time: 22:49:12
(UTC-05:00)

Tiangong 1 - Pass Details

Date: 13 November 2017
Orbit: 284 x 308 km, 42.8° (Epoch: 22 November)

Event Time Altitude Azimuth Distance (km) Brightness Sun altitude
Exits shadow 04:55:58 20° 154° (SSE) 750 2.9 -20.2°
Drops below altitude 10° 04:57:02 10° 139° (SE) 1,133 4.1 -20.0°
Sets 04:59:04 0° 129° (SE) 1,955 5.6 -19.7°
